Content
SEND FEEDBACK

Daily
Averages
Monthly
Summary
Australia

WAGGA, NEW SOUTH WALES


Home > Oceania > Australia > New South Wales
Elevation: 725 feet     Latitude: 35 10S     Longitude: 147 28E

WEATHER
 
SELECT A DAY
Number of Records: 169,608;   Date Range: 2/21/03 - 8/10/14
 
SHARE

PRINT THIS DATA

[ ← Previous Day ]
WEATHER ALMANAC - JANUARY 3, 2013
[ Next Day → ]
[ °C ]   °F
Weather ElementAverageHighLow
Temperature77.8 °F94 °F (5:00 pm)60.8 °F (6:00 am)
Dewpoint47.4 °F52 °F (5:00 am)39.2 °F (12:00 am)
Humidity35.8 %72 % (6:00 am)9 % (6:00 pm)
Barometer29.93 in30.01 in (8:00 am)29.83 in (6:00 pm)
Wind Speed8.5 mph16.1 mph (1:00 am)
Weather ElementAverage
Visibility11.3 mi
Wind DirectionENE (72 °)

Weather ElementTotal
Precipitation---
Cooling Degree Days12.4 (Base 65)
Growing Degree Days27.4 (Base 50)
Averaged from 40 records on January 3, 2013
WEATHER CONDITIONS BREAKOUT
WIND DIRECTION BREAKOUT
WEATHER BY HOUR - JANUARY 3, 2013
[ °C ]   °F
Local TimeTemperatureDewpointHumidityBarometerVisibilityWind DirectionWind SpeedGust SpeedPrecipitationEventsConditions
12:00 AM71.6 °F39.2 °F31 %29.92 in6.2 miNE (50°)5.8 mph
1:00 AM68.0 °F50.0 °F52 %29.95 in6.2 miENE (70°)16.1 mph
2:00 AM65.0 °F51.0 °F49 %29.93 inENE (70°)12.7 mph
2:00 AM64.4 °F50.0 °F59 %29.95 in6.2 miENE (70°)12.7 mph
3:00 AM62.6 °F51.8 °F68 %29.95 in6.2 miENE (60°)8.1 mph
3:00 AM62.0 °F51.0 °F59 %29.94 inENE (60°)8.1 mph
4:00 AM62.6 °F51.8 °F68 %29.95 in6.2 miEast (80°)10.4 mph
5:00 AM62.0 °F52.0 °F60 %29.94 inENE (70°)10.4 mph
5:00 AM62.6 °F51.8 °F68 %29.95 in6.2 miENE (70°)10.4 mph
6:00 AM60.8 °F51.8 °F72 %29.98 inENE (70°)8.1 mphClear
6:00 AM61.0 °F51.0 °F62 %29.95 in19.0 miEast (80°)8.1 mphPartly Cloudy
7:00 AM62.6 °F51.8 °F68 %29.98 inENE (70°)8.1 mphClear
8:00 AM66.0 °F51.0 °F48 %29.98 inENE (60°)10.4 mph
8:00 AM66.2 °F51.8 °F60 %30.01 inENE (60°)10.4 mphClear
9:00 AM69.8 °F50.0 °F49 %30.01 inEast (90°)10.4 mphClear
9:00 AM70.0 °F50.0 °F39 %30.00 in19.0 miEast (90°)10.4 mphPartly Cloudy
9:30 AM73.4 °F50.0 °F44 %30.01 inENE (70°)10.4 mphClear
10:00 AM75.2 °F50.0 °F41 %30.01 inENE (70°)9.2 mphClear
11:00 AM77.0 °F49.0 °F27 %29.97 inNNE (30°)6.9 mph
11:00 AM77.0 °F50.0 °F39 %29.98 in6.2 miNNE (30°)6.9 mph
12:00 PM84.2 °F50.0 °F30 %29.98 inNE (40°)5.8 mphClear
12:00 PM84.0 °F50.0 °F21 %29.96 in19.0 miNE (40°)5.8 mphPartly Cloudy
1:00 PM86.0 °F46.4 °F25 %29.95 in6.2 miSouth (190°)5.8 mph
2:00 PM89.0 °F42.0 °F11 %29.90 inENE (70°)5.8 mph
2:00 PM89.6 °F42.8 °F20 %29.92 in6.2 miENE (70°)5.8 mph
3:00 PM91.4 °F41.0 °F17 %29.89 inNE (50°)5.8 mphClear
3:00 PM91.0 °F42.0 °F10 %29.88 in19.0 miNE (50°)5.8 mphPartly Cloudy
4:00 PM93.2 °F42.8 °F17 %29.89 inSE (140°)6.9 mphClear
5:00 PM94.0 °F44.0 °F10 %29.84 inNNE (20°)6.9 mph
5:00 PM93.2 °F44.6 °F19 %29.86 inNNE (20°)6.9 mphClear
6:00 PM93.2 °F42.8 °F17 %29.83 inESE (110°)8.1 mphClear
6:00 PM94.0 °F42.0 °F9 %29.83 in19.0 miESE (110°)8.1 mphPartly Cloudy
7:00 PM93.2 °F42.8 °F17 %29.83 inEast (90°)10.4 mphClear
8:00 PM91.0 °F44.0 °F11 %29.84 inENE (70°)9.2 mph
8:00 PM91.4 °F44.6 °F20 %29.86 inENE (70°)9.2 mphClear
9:00 PM86.0 °F47.0 °F16 %29.86 in19.0 miENE (60°)8.1 mphPartly Cloudy
9:00 PM86.0 °F46.4 °F25 %29.89 inENE (60°)8.1 mphClear
10:00 PM82.4 °F44.6 °F26 %29.89 inEast (80°)5.8 mphClear
11:00 PM80.0 °F45.0 °F19 %29.88 inESE (110°)8.1 mph
11:00 PM78.8 °F44.6 °F30 %29.89 inESE (110°)8.1 mphClear
Hourly data recorded from YSWG, located miles away from Wagga, New South Wales







STORIES FROM OUR PARTNERS